Vertical_Velocity
-1 -10 1 4 -9 1 -0 2 12 8 1 2 8 -4 2 5 1 2 1 6 -3 2 3 1 4 3 -0 4 1 -1 -1 -1 -2 -3 -1 -0 0 -1 -1 -1 -1 -1 -2 0 3
7 4 4 2 5 2 3 3 5 13 -5 7 10 -4 4 6 4 2 1 4 -2 3 1 2 2 -0 -3 2 0 -2 0 -2 -1 -2 -1 -1 -2 -2 -1 0 2 0 1 -1 0
-5 -1 5 2 2 0 0 0 11 10 3 9 0 2 8 8 9 -2 -2 3 -0 2 1 2 4 -1 -1 3 1 -1 -0 -1 -1 -1 -1 -2 -1 -2 -2 1 -1 -1 -0 1 1
-6 6 5 -3 13 47 15 8 -21 -4 -6 -3 5 -1 11 10 3 -4 -2 5 1 1 1 -0 3 -1 -3 1 0 -2 0 0 -0 -2 -1 -2 -1 -0 -2 0 -1 -1 -1 1 1
-4 1 11 16 -10 3 6 -14 -4 -4 3 16 -5 1 11 9 3 -2 -1 5 0 2 3 1 -0 1 -3 1 1 1 -0 -1 -0 -0 -1 -1 -1 -1 3 -2 -1 1 1 -0 2
1 3 -2 2 2 6 -3 -34 -22 5 3 7 -6 4 10 13 3 -3 1 4 1 4 1 1 -0 1 4 0 -0 -1 -2 1 -1 -1 -2 -3 -3 -1 2 3 2 1 -0 2 1
3 -2 -1 2 -1 1 -8 -2 2 -1 -7 -4 2 2 8 7 6 -4 2 1 -1 4 -0 1 2 -2 -1 3 1 -0 -1 -0 -2 0 -3 -1 1 -0 0 -0 1 0 -0 1 1
10 3 -4 1 2 -3 0 1 3 1 1 3 -2 3 7 7 2 -1 2 -1 -0 3 -1 -2 0 -1 -2 -0 -1 1 -2 -1 -2 -0 -2 -1 5 -1 -1 -3 0 -2 -3 -1 -1
6 0 4 5 -5 4 5 6 1 2 3 2 -1 2 5 6 4 1 3 1 2 2 -1 -1 1 1 -2 -1 -0 0 -1 -1 0 0 -1 -1 -1 -1 -1 -7 2 -1 -1 -0 3
-0 4 4 3 7 7 2 4 1 3 2 2 -0 4 8 3 3 0 -0 2 1 -0 1 -0 0 0 -0 1 -3 -2 -1 -2 -1 -3 -0 -1 -9 7 -3 -2 -3 -1 -1 1 2
2 1 1 1 2 -2 1 1 1 2 6 -2 -1 3 5 4 4 2 1 1 2 -0 -0 1 0 -1 2 1 0 -1 -0 -1 -1 -2 -4 0 -7 4 1 -4 -1 -0 -2 1 1
-2 -3 -1 -2 -2 -2 -1 1 0 5 -3 -4 3 4 1 1 0 1 2 -0 0 -1 1 1 -0 0 1 0 -0 0 0 -1 -1 -1 -3 -1 -1 -2 1 -2 -0 -2 -1 -2 -1
-0 -2 -1 1 -0 1 1 3 3 1 1 2 2 2 2 2 -0 -1 -0 -1 -1 -0 -0 0 1 -0 1 -0 -0 1 0 -1 -2 0 -1 -5 -8 -1 1 1 1 -1 -1 -3 -4
-0 -0 -2 -1 -3 -0 2 1 1 2 0 -1 2 3 3 -0 0 1 -0 -0 -0 -1 1 -0 1 0 -1 1 1 -0 -1 -0 -1 -1 -1 -1 -9 -2 -1 -1 0 -1 -3 -2 -2
-1 1 0 -2 -2 -2 1 1 -0 -0 -8 2 -0 0 -2 -1 -1 -2 -0 1 -0 -0 0 -0 -1 -0 -0 -1 -0 -2 -0 -1 -1 -1 -1 -3 0 -0 -2 2 1 -3 -2 0 1
-1 -2 -1 2 1 -1 -0 -1 -1 -1 -5 -1 0 1 -0 0 0 0 -2 -1 -1 -0 -1 -1 -1 -0 -1 -2 -1 -0 -0 -0 -1 -1 -2 1 1 0 -1 -0 -3 -2 -1 1 3
3 -0 -1 -1 0 2 1 1 -1 -5 0 1 -1 -0 -0 -1 -1 -1 -2 -1 -1 -1 -0 0 0 0 -1 -0 0 2 -1 -3 -7 -3 -6 0 1 -4 -2 -0 -2 -1 0 0 -2
1 3 2 -0 -1 -0 1 2 -2 -1 0 -0 -2 -1 -1 -1 0 -1 -1 -1 -0 -1 -1 -0 -1 2 0 -0 0 -1 -1 -2 -4 -2 -4 0 -5 -3 -1 0 0 -0 -1 -1 1
1 2 2 2 1 1 -0 -0 -2 -1 0 0 1 0 -0 0 1 -1 -1 -0 -1 -1 -1 -1 -1 -1 -1 -0 0 -1 -1 0 0 1 -1 0 -3 -2 0 -0 -1 -1 -0 -0 1
-0 -1 2 1 2 0 -1 -2 -1 -1 -2 0 -0 -1 -2 -2 -3 -3 -2 -1 -2 -1 -1 -1 -1 -1 -1 -1 -1 0 0 -1 0 -3 -1 -2 -3 -4 -1 -1 -1 -1 -1 -1 -0
-3 -1 -0 -0 -1 -0 0 -0 -1 -1 -0 -1 -1 -1 -1 -1 -0 -0 -0 -0 0 -1 -1 -1 -0 -1 0 -2 -1 -0 -1 -0 -1 -0 -3 -1 -6 -1 -1 -1 -1 -1 -1 -1 -1
-1 -5 -2 0 -1 -2 -0 -1 0 2 1 -1 -2 -2 -3 -2 -2 -2 -2 -1 -1 -1 -2 -2 -1 -1 -0 0 1 0 -1 0 -1 -1 0 0 -17 -2 0 -0 -1 -1 -1 0 1
-3 -3 -3 -5 -2 2 -0 -2 -1 -1 -0 1 1 -0 -0 -1 -1 1 1 0 0 0 2 2 1 -2 -1 -0 -1 -2 -0 1 0 3 -3 -1 -10 -1 -3 -3 -2 -1 1 0 0
-3 -6 -4 -3 -4 -5 -1 3 1 -1 -2 -2 -1 -0 0 -0 0 -0 0 -0 -0 0 0 0 -1 -1 -4 2 2 -3 0 1 3 1 -4 -14 -15 6 -2 2 -2 0 0 2 2
-1 -0 -4 -3 -2 -3 -3 -5 -2 1 1 0 -3 -2 -1 -2 -1 -1 0 0 0 0 -0 -1 -3 -2 0 1 1 -0 2 6 -2 8 -4 2 -18 14 12 5 3 2 2 4 2
-3 -0 1 -5 -5 -6 -2 1 1 -2 -3 -2 1 3 1 -2 -2 -2 -2 -3 -3 -1 2 2 1 -1 -7 1 2 -8 -0 4 6 6 -18 15 -39 17 5 -1 -0 4 4 3 3
-1 2 1 3 3 1 -8 -10 -8 -3 1 2 -1 -4 -2 0 -1 0 2 3 1 -0 -0 -2 -2 -1 -6 -2 -1 -11 2 3 2 3 6 -8 7 2 4 0 1 4 4 4 0
Height
3032 3031 3031 3032 3036 3041 3045 3050 3055 3060 3064 3068 3071 3079 3080 3089 3102 3109 3112 3115 3121 3125 3129 3133 3137 3141 3144 3148 3152 3155 3158 3159 3160 3163 3164 3165 3166 3165 3166 3165 3164 3165 3165 3165 3163
3035 3035 3036 3037 3039 3041 3045 3047 3051 3054 3058 3062 3071 3078 3080 3090 3101 3107 3111 3114 3119 3124 3129 3133 3136 3140 3144 3148 3152 3155 3157 3158 3161 3163 3164 3164 3165 3164 3165 3163 3163 3163 3163 3163 3162
3038 3040 3040 3040 3043 3044 3045 3048 3053 3055 3053 3063 3072 3078 3080 3091 3102 3106 3110 3114 3118 3123 3129 3133 3136 3140 3145 3148 3152 3154 3156 3158 3160 3161 3162 3163 3163 3162 3162 3162 3162 3162 3161 3161 3160
3044 3043 3045 3045 3042 3040 3047 3047 3051 3055 3055 3065 3074 3078 3081 3092 3103 3106 3110 3114 3118 3124 3129 3133 3137 3141 3146 3149 3151 3154 3156 3157 3158 3159 3160 3160 3161 3160 3161 3161 3160 3160 3159 3158 3157
3049 3049 3048 3048 3048 3045 3046 3048 3054 3055 3062 3068 3076 3080 3083 3093 3100 3106 3111 3115 3119 3125 3129 3134 3138 3142 3146 3149 3151 3153 3155 3156 3157 3158 3158 3158 3158 3158 3159 3158 3158 3157 3156 3155 3153
3054 3055 3054 3050 3050 3052 3051 3053 3059 3061 3068 3073 3079 3083 3086 3095 3100 3107 3112 3116 3120 3126 3130 3135 3138 3143 3145 3148 3151 3152 3154 3155 3155 3156 3156 3156 3156 3156 3157 3156 3155 3153 3153 3152 3150
3058 3057 3058 3057 3057 3058 3059 3061 3064 3069 3074 3079 3084 3087 3090 3095 3101 3109 3113 3117 3122 3126 3130 3135 3139 3143 3145 3148 3149 3151 3153 3153 3153 3153 3153 3154 3154 3153 3154 3153 3151 3149 3149 3147 3145
3062 3061 3062 3063 3063 3064 3066 3070 3073 3076 3080 3085 3088 3090 3092 3096 3103 3110 3114 3119 3123 3127 3131 3135 3138 3142 3145 3147 3149 3150 3151 3152 3151 3151 3151 3152 3151 3151 3150 3149 3147 3145 3144 3143 3141
3066 3067 3067 3069 3071 3073 3074 3077 3079 3082 3085 3090 3093 3093 3095 3099 3105 3111 3116 3120 3124 3127 3131 3135 3139 3141 3145 3147 3149 3148 3148 3149 3150 3149 3149 3149 3148 3147 3146 3143 3142 3141 3140 3139 3138
3077 3076 3077 3078 3079 3080 3081 3082 3085 3087 3090 3093 3096 3099 3099 3102 3107 3112 3117 3122 3125 3128 3132 3136 3138 3141 3143 3145 3146 3146 3147 3147 3148 3148 3146 3145 3144 3143 3140 3138 3137 3135 3134 3134 3135
3084 3085 3085 3085 3085 3085 3086 3087 3091 3094 3094 3096 3099 3098 3101 3105 3110 3114 3119 3122 3126 3130 3132 3135 3139 3140 3142 3143 3144 3145 3146 3146 3146 3145 3143 3141 3140 3138 3135 3134 3133 3131 3130 3130 3132
3093 3091 3090 3090 3090 3091 3092 3092 3093 3096 3097 3100 3102 3104 3106 3109 3113 3117 3121 3125 3127 3131 3134 3138 3138 3140 3141 3142 3143 3144 3144 3144 3144 3143 3141 3137 3135 3133 3131 3130 3130 3129 3128 3129 3130
3098 3097 3096 3095 3095 3096 3097 3098 3098 3099 3101 3106 3107 3108 3111 3114 3117 3120 3124 3126 3129 3132 3134 3137 3138 3139 3140 3141 3142 3142 3142 3142 3142 3140 3137 3134 3131 3129 3128 3128 3128 3127 3128 3128 3129
3102 3102 3102 3101 3102 3101 3102 3103 3103 3103 3106 3112 3111 3114 3115 3116 3120 3122 3125 3129 3130 3132 3135 3137 3137 3138 3139 3140 3141 3140 3140 3139 3138 3138 3137 3136 3132 3127 3125 3126 3125 3125 3126 3127 3127
3106 3105 3105 3106 3106 3105 3106 3105 3106 3106 3109 3116 3114 3115 3117 3120 3122 3124 3126 3128 3130 3133 3136 3136 3136 3137 3138 3139 3139 3139 3139 3137 3136 3135 3134 3132 3132 3122 3122 3123 3122 3123 3125 3126 3126
3108 3107 3107 3107 3107 3108 3107 3106 3107 3109 3112 3115 3116 3117 3120 3120 3123 3124 3127 3130 3131 3133 3133 3135 3136 3136 3136 3137 3138 3138 3137 3136 3134 3133 3132 3128 3129 3119 3120 3120 3120 3121 3123 3124 3124
3109 3109 3108 3108 3109 3108 3108 3107 3109 3107 3115 3117 3117 3118 3120 3122 3124 3125 3127 3129 3131 3133 3133 3133 3134 3134 3135 3136 3136 3136 3137 3136 3136 3135 3131 3127 3126 3117 3117 3117 3117 3119 3121 3122 3121
3111 3110 3110 3110 3110 3110 3110 3110 3108 3112 3112 3115 3117 3120 3122 3123 3124 3126 3127 3129 3130 3131 3132 3133 3134 3133 3133 3134 3135 3134 3135 3135 3139 3136 3128 3126 3118 3114 3114 3114 3115 3116 3117 3118 3119
3114 3112 3111 3110 3110 3110 3111 3111 3111 3112 3114 3116 3118 3120 3121 3122 3124 3125 3127 3128 3128 3129 3132 3131 3130 3130 3131 3132 3134 3132 3132 3134 3132 3130 3129 3119 3115 3112 3110 3110 3112 3113 3113 3115 3115
3116 3114 3112 3111 3110 3110 3111 3111 3112 3113 3115 3118 3119 3120 3121 3122 3125 3125 3126 3127 3127 3128 3129 3129 3130 3129 3129 3130 3130 3130 3132 3132 3131 3132 3129 3115 3111 3106 3107 3107 3108 3110 3111 3111 3111
3119 3116 3114 3112 3112 3111 3111 3111 3112 3114 3117 3119 3119 3120 3122 3123 3124 3125 3126 3127 3126 3126 3127 3128 3129 3129 3127 3126 3126 3127 3127 3128 3129 3127 3125 3122 3107 3105 3105 3106 3107 3108 3108 3108 3108
3119 3117 3115 3113 3115 3113 3112 3112 3114 3115 3117 3119 3120 3120 3121 3123 3123 3125 3125 3125 3125 3125 3126 3127 3126 3125 3125 3124 3124 3123 3123 3124 3125 3123 3120 3118 3105 3103 3103 3104 3104 3104 3104 3104 3104
3120 3117 3116 3115 3115 3115 3115 3115 3115 3117 3118 3119 3119 3120 3121 3122 3124 3123 3123 3123 3123 3124 3124 3124 3123 3123 3121 3123 3120 3119 3118 3119 3119 3118 3114 3115 3101 3100 3100 3101 3101 3101 3101 3100 3098
3122 3119 3118 3116 3116 3116 3117 3117 3117 3117 3117 3118 3119 3119 3120 3121 3122 3122 3122 3123 3122 3123 3123 3123 3121 3120 3119 3118 3118 3116 3115 3114 3114 3111 3106 3098 3098 3098 3099 3097 3097 3096 3095 3093 3092
3123 3121 3120 3118 3117 3116 3117 3117 3118 3119 3119 3118 3118 3118 3119 3119 3119 3119 3120 3120 3120 3120 3120 3120 3117 3116 3116 3115 3112 3110 3109 3109 3104 3103 3101 3092 3092 3092 3094 3092 3091 3090 3088 3088 3086
3125 3122 3119 3118 3118 3117 3116 3116 3116 3117 3118 3118 3118 3118 3118 3118 3118 3117 3117 3117 3117 3117 3116 3115 3114 3111 3109 3109 3106 3102 3101 3099 3097 3095 3092 3090 3086 3088 3087 3084 3082 3082 3082 3082 3081
3124 3122 3120 3119 3116 3116 3115 3115 3114 3114 3115 3115 3115 3115 3116 3116 3116 3115 3115 3114 3113 3113 3113 3112 3111 3110 3105 3104 3102 3098 3093 3091 3089 3088 3088 3086 3085 3083 3081 3080 3078 3077 3077 3077 3076